DAL834 KDTW-KIND

Flight info

Callsign DAL834
Flight time 0h 46m
Altitude 22000
Route SNDRS3 TORRR SNKPT SNKPT2
Aircraft A319/M-SDE3FGHIRWY/LB1

Departure

Time 2026-05-07 00:58
Airport Detroit Metropolitan Wayne County Airport (KDTW)

Arrival

Time 2026-05-07 01:44
Airport Indianapolis International Airport (KIND)
Time Latitude Longitude Altitude Speed Heading
2026-05-07 00:32 42.21061 -83.35575 650 ft 0 kts 298°
2026-05-07 00:50 42.21060 -83.35573 648 ft 2 kts 298°
2026-05-07 00:50 42.21048 -83.35543 648 ft 4 kts 298°
2026-05-07 00:50 42.21039 -83.35520 649 ft 4 kts 333°
2026-05-07 00:50 42.21020 -83.35522 650 ft 3 kts 28°
2026-05-07 00:51 42.21005 -83.35533 649 ft 0 kts 28°
2026-05-07 00:53 42.21007 -83.35531 648 ft 2 kts 28°
2026-05-07 00:53 42.21033 -83.35512 648 ft 7 kts 29°
2026-05-07 00:53 42.21090 -83.35470 648 ft 12 kts 28°
2026-05-07 00:54 42.21177 -83.35406 648 ft 17 kts 28°
2026-05-07 00:54 42.21285 -83.35327 648 ft 18 kts 27°
2026-05-07 00:54 42.21403 -83.35251 647 ft 19 kts 25°
2026-05-07 00:54 42.21521 -83.35212 647 ft 14 kts
2026-05-07 00:55 42.21531 -83.35115 647 ft 14 kts 139°
2026-05-07 00:55 42.21448 -83.35045 647 ft 15 kts 149°
2026-05-07 00:55 42.21363 -83.34975 649 ft 14 kts 148°
2026-05-07 00:55 42.21265 -83.34939 646 ft 16 kts 201°
2026-05-07 00:56 42.21164 -83.35012 647 ft 17 kts 208°
2026-05-07 00:56 42.21059 -83.35089 647 ft 18 kts 208°
2026-05-07 00:56 42.20949 -83.35171 647 ft 18 kts 209°
2026-05-07 00:56 42.20865 -83.35225 647 ft 8 kts 185°
2026-05-07 00:57 42.20826 -83.35181 646 ft 9 kts 122°
2026-05-07 00:57 42.20828 -83.35091 645 ft 11 kts 36°
2026-05-07 00:57 42.20904 -83.35037 644 ft 14 kts 27°
2026-05-07 00:57 42.21143 -83.34864 645 ft 79 kts 28°
2026-05-07 00:58 42.21843 -83.34347 648 ft 148 kts 28°
2026-05-07 00:58 42.22807 -83.33639 1151 ft 160 kts 27°
2026-05-07 00:58 42.23790 -83.32901 1923 ft 164 kts 29°
2026-05-07 00:58 42.24621 -83.31793 2534 ft 180 kts 53°
2026-05-07 00:59 42.25940 -83.28451 3429 ft 228 kts 61°
2026-05-07 00:59 42.26697 -83.26442 4035 ft 250 kts 62°
2026-05-07 00:59 42.27358 -83.24174 4749 ft 272 kts 78°
2026-05-07 01:00 42.27404 -83.21578 5662 ft 283 kts 99°
2026-05-07 01:00 42.26810 -83.19031 6607 ft 289 kts 118°
2026-05-07 01:00 42.25779 -83.16709 7375 ft 289 kts 124°
2026-05-07 01:00 42.24720 -83.14387 8173 ft 292 kts 124°
2026-05-07 01:01 42.23636 -83.12053 8971 ft 295 kts 129°
2026-05-07 01:01 42.22145 -83.10195 9792 ft 292 kts 154°
2026-05-07 01:01 42.20257 -83.09300 10545 ft 286 kts 178°
2026-05-07 01:01 42.18303 -83.09466 11391 ft 279 kts 202°
2026-05-07 01:02 42.16497 -83.10461 12068 ft 289 kts 211°
2026-05-07 01:02 42.14624 -83.11651 12411 ft 313 kts 211°
2026-05-07 01:02 42.12611 -83.12938 12987 ft 326 kts 211°
2026-05-07 01:02 42.10515 -83.14263 13833 ft 330 kts 211°
2026-05-07 01:03 42.08450 -83.15556 14613 ft 333 kts 211°
2026-05-07 01:03 42.06347 -83.16865 15462 ft 333 kts 211°
2026-05-07 01:03 42.04239 -83.18179 16300 ft 334 kts 211°
2026-05-07 01:03 42.02121 -83.19504 17112 ft 336 kts 211°
2026-05-07 01:04 42.00084 -83.21013 17891 ft 333 kts 220°
2026-05-07 01:04 41.98336 -83.23019 18614 ft 328 kts 231°
2026-05-07 01:04 41.96939 -83.25422 19319 ft 326 kts 239°
2026-05-07 01:04 41.95673 -83.27965 20014 ft 328 kts 239°
2026-05-07 01:05 41.94394 -83.30520 20685 ft 331 kts 239°
2026-05-07 01:05 41.93106 -83.33092 21347 ft 333 kts 239°
2026-05-07 01:05 41.91805 -83.35683 21855 ft 335 kts 239°
2026-05-07 01:05 41.90499 -83.38277 21978 ft 338 kts 239°
2026-05-07 01:06 41.89164 -83.40932 21999 ft 346 kts 239°
2026-05-07 01:06 41.87811 -83.43618 21999 ft 348 kts 239°
2026-05-07 01:06 41.86453 -83.46308 21998 ft 349 kts 239°
2026-05-07 01:06 41.85090 -83.49006 21998 ft 349 kts 239°
2026-05-07 01:07 41.83730 -83.51701 21998 ft 349 kts 239°
2026-05-07 01:07 41.82368 -83.54395 22006 ft 349 kts 239°
2026-05-07 01:07 41.81008 -83.57086 22001 ft 348 kts 239°
2026-05-07 01:07 41.79650 -83.59772 21989 ft 348 kts 239°
2026-05-07 01:08 41.78294 -83.62449 22001 ft 347 kts 239°
2026-05-07 01:08 41.76939 -83.65127 22000 ft 347 kts 239°
2026-05-07 01:08 41.75581 -83.67811 21998 ft 347 kts 239°
2026-05-07 01:08 41.74224 -83.70483 21997 ft 347 kts 239°
2026-05-07 01:09 41.72865 -83.73153 21995 ft 347 kts 239°
2026-05-07 01:09 41.71505 -83.75820 21995 ft 347 kts 239°
2026-05-07 01:09 41.69983 -83.78337 21993 ft 351 kts 230°
2026-05-07 01:09 41.68079 -83.80438 21993 ft 359 kts 220°
2026-05-07 01:10 41.65932 -83.82175 21990 ft 361 kts 218°
2026-05-07 01:10 41.63773 -83.83898 21990 ft 361 kts 218°
2026-05-07 01:10 41.61618 -83.85622 21988 ft 361 kts 218°
2026-05-07 01:10 41.59495 -83.87326 21963 ft 360 kts 219°
2026-05-07 01:11 41.57351 -83.89051 21985 ft 360 kts 219°
2026-05-07 01:11 41.55206 -83.90773 21996 ft 359 kts 219°
2026-05-07 01:11 41.53061 -83.92493 22004 ft 359 kts 218°
2026-05-07 01:11 41.50916 -83.94212 22001 ft 360 kts 218°
2026-05-07 01:12 41.48770 -83.95933 21999 ft 360 kts 218°
2026-05-07 01:12 41.46618 -83.97658 22006 ft 360 kts 218°
2026-05-07 01:12 41.44470 -83.99374 22004 ft 360 kts 218°
2026-05-07 01:12 41.42317 -84.01088 22004 ft 360 kts 218°
2026-05-07 01:13 41.40161 -84.02800 21961 ft 360 kts 219°
2026-05-07 01:13 41.38014 -84.04503 21988 ft 359 kts 219°
2026-05-07 01:13 41.35871 -84.06205 22005 ft 358 kts 219°
2026-05-07 01:13 41.33733 -84.07902 22016 ft 357 kts 219°
2026-05-07 01:14 41.31596 -84.09596 22020 ft 357 kts 219°
2026-05-07 01:14 41.29463 -84.11284 22025 ft 357 kts 219°
2026-05-07 01:14 41.27330 -84.12980 22034 ft 356 kts 219°
2026-05-07 01:14 41.25192 -84.14645 22025 ft 359 kts 216°
2026-05-07 01:15 41.22870 -84.15980 22026 ft 365 kts 211°
2026-05-07 01:15 41.20512 -84.17230 22026 ft 365 kts 211°
2026-05-07 01:15 41.18155 -84.18475 22008 ft 364 kts 212°
2026-05-07 01:15 41.15841 -84.19694 22027 ft 362 kts 212°
2026-05-07 01:16 41.13493 -84.20931 22030 ft 361 kts 212°
2026-05-07 01:16 41.11158 -84.22169 22039 ft 361 kts 212°
2026-05-07 01:16 41.08831 -84.23404 22041 ft 360 kts 212°
2026-05-07 01:16 41.06507 -84.24636 22041 ft 359 kts 212°
2026-05-07 01:17 41.04183 -84.25867 22041 ft 359 kts 212°
2026-05-07 01:17 41.01862 -84.27092 22040 ft 359 kts 212°
2026-05-07 01:17 40.99543 -84.28315 22039 ft 359 kts 212°
2026-05-07 01:17 40.97225 -84.29532 22029 ft 358 kts 212°
2026-05-07 01:18 40.94910 -84.30736 22045 ft 357 kts 212°
2026-05-07 01:18 40.92603 -84.31945 22033 ft 356 kts 213°
2026-05-07 01:18 40.90305 -84.33160 22034 ft 356 kts 213°
2026-05-07 01:18 40.88003 -84.34376 22042 ft 356 kts 213°
2026-05-07 01:19 40.85707 -84.35591 22032 ft 356 kts 213°
2026-05-07 01:19 40.83403 -84.36805 22032 ft 356 kts 213°
2026-05-07 01:19 40.81100 -84.38013 22020 ft 356 kts 213°
2026-05-07 01:19 40.78802 -84.39214 22019 ft 355 kts 213°
2026-05-07 01:20 40.76542 -84.40487 21986 ft 348 kts 218°
2026-05-07 01:20 40.74550 -84.42192 22007 ft 335 kts 227°
2026-05-07 01:20 40.72898 -84.44293 22019 ft 326 kts 236°
2026-05-07 01:20 40.71589 -84.46692 22025 ft 321 kts 241°
2026-05-07 01:21 40.70351 -84.49146 22032 ft 321 kts 241°
2026-05-07 01:21 40.69529 -84.50764 22033 ft 321 kts 241°
2026-05-07 01:21 40.68284 -84.53202 22035 ft 321 kts 241°
2026-05-07 01:21 40.66633 -84.56427 22034 ft 320 kts 241°
2026-05-07 01:22 40.65387 -84.58863 22036 ft 320 kts 241°
2026-05-07 01:22 40.64143 -84.61296 22033 ft 320 kts 241°
2026-05-07 01:22 40.62900 -84.63728 22036 ft 320 kts 241°
2026-05-07 01:22 40.61657 -84.66160 22031 ft 320 kts 241°
2026-05-07 01:23 40.60414 -84.68589 22037 ft 321 kts 241°
2026-05-07 01:23 40.59572 -84.70235 22041 ft 321 kts 241°
2026-05-07 01:23 40.58338 -84.72645 22028 ft 322 kts 241°
2026-05-07 01:23 40.57067 -84.75117 22034 ft 322 kts 240°
2026-05-07 01:24 40.55827 -84.77524 22029 ft 322 kts 240°
2026-05-07 01:24 40.54572 -84.79963 22035 ft 322 kts 241°
2026-05-07 01:24 40.53316 -84.82406 22024 ft 322 kts 241°
2026-05-07 01:24 40.52062 -84.84849 22034 ft 323 kts 241°
2026-05-07 01:25 40.50801 -84.87298 22025 ft 323 kts 240°
2026-05-07 01:25 40.49542 -84.89738 22031 ft 323 kts 240°
2026-05-07 01:25 40.48280 -84.92182 22028 ft 323 kts 240°
2026-05-07 01:25 40.47018 -84.94624 22040 ft 323 kts 240°
2026-05-07 01:26 40.45758 -84.97066 22030 ft 323 kts 240°
2026-05-07 01:26 40.44495 -84.99511 22036 ft 323 kts 240°
2026-05-07 01:26 40.43233 -85.01951 22038 ft 323 kts 240°
2026-05-07 01:26 40.41971 -85.04391 22030 ft 323 kts 240°
2026-05-07 01:27 40.40710 -85.06828 21958 ft 323 kts 240°
2026-05-07 01:27 40.39443 -85.09268 21695 ft 323 kts 240°
2026-05-07 01:27 40.38179 -85.11698 21434 ft 322 kts 240°
2026-05-07 01:27 40.36916 -85.14126 21133 ft 321 kts 240°
2026-05-07 01:28 40.35661 -85.16534 20882 ft 318 kts 240°
2026-05-07 01:28 40.34433 -85.18888 20548 ft 309 kts 240°
2026-05-07 01:28 40.33236 -85.21190 20153 ft 302 kts 240°
2026-05-07 01:28 40.32063 -85.23446 19756 ft 296 kts 240°
2026-05-07 01:29 40.30914 -85.25655 19378 ft 292 kts 240°
2026-05-07 01:29 40.29773 -85.27845 19001 ft 291 kts 240°
2026-05-07 01:29 40.28630 -85.30035 18620 ft 291 kts 239°
2026-05-07 01:29 40.27483 -85.32226 18216 ft 291 kts 239°
2026-05-07 01:30 40.26335 -85.34414 17798 ft 291 kts 239°
2026-05-07 01:30 40.25190 -85.36602 17360 ft 291 kts 239°
2026-05-07 01:30 40.24046 -85.38787 16959 ft 292 kts 239°
2026-05-07 01:30 40.23021 -85.41035 16491 ft 290 kts 244°
2026-05-07 01:31 40.22038 -85.43333 15999 ft 290 kts 244°
2026-05-07 01:31 40.21048 -85.45636 15491 ft 291 kts 244°
2026-05-07 01:31 40.20054 -85.47942 14984 ft 291 kts 244°
2026-05-07 01:31 40.19057 -85.50249 14470 ft 291 kts 244°
2026-05-07 01:32 40.18058 -85.52556 13978 ft 292 kts 244°
2026-05-07 01:32 40.17058 -85.54866 13420 ft 292 kts 244°
2026-05-07 01:32 40.16060 -85.57176 12890 ft 291 kts 244°
2026-05-07 01:32 40.15065 -85.59477 12370 ft 290 kts 244°
2026-05-07 01:33 40.14073 -85.61770 11854 ft 290 kts 244°
2026-05-07 01:33 40.13084 -85.64062 11330 ft 290 kts 244°
2026-05-07 01:33 40.12100 -85.66363 10804 ft 290 kts 244°
2026-05-07 01:33 40.11134 -85.68623 10627 ft 278 kts 244°
2026-05-07 01:34 40.10210 -85.70778 10501 ft 266 kts 244°
2026-05-07 01:34 40.09321 -85.72852 10257 ft 259 kts 244°
2026-05-07 01:34 40.08444 -85.74900 10015 ft 257 kts 244°
2026-05-07 01:34 40.07575 -85.76937 9860 ft 257 kts 244°
2026-05-07 01:35 40.06702 -85.78984 9735 ft 257 kts 244°
2026-05-07 01:35 40.05830 -85.81025 9606 ft 258 kts 244°
2026-05-07 01:35 40.04910 -85.83036 9466 ft 258 kts 242°
2026-05-07 01:35 40.03953 -85.85020 9330 ft 258 kts 241°
2026-05-07 01:36 40.02973 -85.86988 8999 ft 259 kts 238°
2026-05-07 01:36 40.01806 -85.88789 8583 ft 259 kts 233°
2026-05-07 01:36 40.00630 -85.90571 8157 ft 259 kts 233°
2026-05-07 01:36 39.99465 -85.92355 7721 ft 258 kts 233°
2026-05-07 01:37 39.98302 -85.94144 7307 ft 258 kts 233°
2026-05-07 01:37 39.97144 -85.95929 6882 ft 258 kts 233°
2026-05-07 01:37 39.95984 -85.97716 6448 ft 258 kts 232°
2026-05-07 01:37 39.94821 -85.99504 6009 ft 259 kts 232°
2026-05-07 01:38 39.93654 -86.01294 5574 ft 259 kts 232°
2026-05-07 01:38 39.92500 -86.03060 5359 ft 249 kts 232°
2026-05-07 01:38 39.91412 -86.04720 5298 ft 233 kts 232°
2026-05-07 01:38 39.90466 -86.06349 5217 ft 218 kts 237°
2026-05-07 01:39 39.89523 -86.07841 5123 ft 208 kts 230°
2026-05-07 01:39 39.88549 -86.09149 5030 ft 199 kts 228°
2026-05-07 01:39 39.87585 -86.10395 4900 ft 193 kts 228°
2026-05-07 01:39 39.86635 -86.11616 4659 ft 192 kts 228°
2026-05-07 01:40 39.85685 -86.12836 4407 ft 192 kts 228°
2026-05-07 01:40 39.84734 -86.14057 4141 ft 192 kts 228°
2026-05-07 01:40 39.83779 -86.15281 3880 ft 193 kts 228°
2026-05-07 01:40 39.82831 -86.16496 3638 ft 190 kts 228°
2026-05-07 01:41 39.81896 -86.17694 3361 ft 187 kts 228°
2026-05-07 01:41 39.80981 -86.18865 3105 ft 183 kts 228°
2026-05-07 01:41 39.80082 -86.20016 2849 ft 180 kts 229°
2026-05-07 01:41 39.79210 -86.21130 2614 ft 169 kts 229°
2026-05-07 01:42 39.78400 -86.22165 2391 ft 158 kts 229°
2026-05-07 01:42 39.77643 -86.23133 2192 ft 145 kts 230°
2026-05-07 01:42 39.76956 -86.24011 1993 ft 134 kts 231°
2026-05-07 01:42 39.76310 -86.24843 1808 ft 129 kts 231°
2026-05-07 01:43 39.75680 -86.25664 1599 ft 128 kts 230°
2026-05-07 01:43 39.75056 -86.26479 1442 ft 127 kts 229°
2026-05-07 01:43 39.74434 -86.27291 1266 ft 126 kts 228°
2026-05-07 01:43 39.73799 -86.28083 1093 ft 126 kts 226°
2026-05-07 01:44 39.73165 -86.28869 928 ft 126 kts 227°
2026-05-07 01:44 39.72537 -86.29657 783 ft 120 kts 227°
2026-05-07 01:44 39.72044 -86.30293 777 ft 76 kts 224°
2026-05-07 01:44 39.71789 -86.30617 776 ft 29 kts 225°
2026-05-07 01:45 39.71649 -86.30795 779 ft 28 kts 224°
2026-05-07 01:45 39.71512 -86.30956 782 ft 26 kts 216°
2026-05-07 01:45 39.71374 -86.31005 780 ft 16 kts 175°
2026-05-07 01:45 39.71321 -86.30913 779 ft 17 kts 54°
2026-05-07 01:46 39.71404 -86.30807 781 ft 17 kts 44°
2026-05-07 01:46 39.71492 -86.30695 780 ft 19 kts 44°
2026-05-07 01:46 39.71595 -86.30565 779 ft 21 kts 44°
2026-05-07 01:46 39.71707 -86.30420 776 ft 24 kts 44°
2026-05-07 01:47 39.71826 -86.30269 777 ft 22 kts 44°
2026-05-07 01:47 39.71884 -86.30150 778 ft 14 kts 100°
2026-05-07 01:47 39.71821 -86.30054 780 ft 14 kts 135°
2026-05-07 01:47 39.71805 -86.29952 783 ft 12 kts 68°
2026-05-07 01:48 39.71853 -86.29847 785 ft 14 kts 47°
2026-05-07 01:48 39.71931 -86.29761 785 ft 16 kts 40°
2026-05-07 01:48 39.71958 -86.29643 786 ft 16 kts 115°
2026-05-07 01:48 39.71906 -86.29521 787 ft 16 kts 112°
2026-05-07 01:49 39.71846 -86.29400 787 ft 16 kts 129°
2026-05-07 01:49 39.71761 -86.29295 789 ft 18 kts 140°
2026-05-07 01:49 39.71663 -86.29189 786 ft 19 kts 140°
2026-05-07 01:49 39.71557 -86.29103 783 ft 18 kts 185°
2026-05-07 01:50 39.71468 -86.29215 783 ft 19 kts 231°
2026-05-07 01:50 39.71382 -86.29348 783 ft 20 kts 231°
2026-05-07 01:50 39.71368 -86.29501 783 ft 11 kts 296°
2026-05-07 01:50 39.71393 -86.29569 784 ft 3 kts 296°
2026-05-07 01:51 39.71400 -86.29587 785 ft 1 kts 296°
2026-05-07 01:51 39.71403 -86.29594 785 ft 0 kts 296°
2026-05-07 01:51 39.71403 -86.29595 785 ft 0 kts 296°
2026-05-07 01:51 39.71404 -86.29596 785 ft 0 kts 296°